KC1TWD Weather Reports


Display with metric or nautical units.
time (UTC)temp
F
wind
direction
speed
MPH
gust
MPH
rain 1hr
in
rain 24hr
in
rain mn
in
humidity
%
barometer
mb
20260510204634 70 230 0.0 2.0 0.00 0.00 0.00 51 1010.8
20260510204131 70 344 6.0 7.0 0.00 0.00 0.00 48 1010.6
20260510203627 71 172 4.0 6.0 0.00 0.00 0.00 49 1010.9
20260510203124 71 316 1.0 2.0 0.00 0.00 0.00 48 1010.7
20260510202619 71 341 2.0 3.0 0.00 0.00 0.00 50 1010.5
20260510202115 72 308 0.0 1.0 0.00 0.00 0.00 48 1010.8
20260510201612 72 213 0.0 1.0 0.00 0.00 0.00 49 1010.7
20260510201109 72 312 3.0 6.0 0.00 0.00 0.00 48 1010.7
20260510200605 73 196 1.0 2.0 0.00 0.00 0.00 47 1010.8
20260510195600 73 304 1.0 3.0 0.00 0.00 0.00 47 1010.5
20260510195055 72 336 2.0 3.0 0.00 0.00 0.00 50 1010.7
20260510194550 71 321 1.0 2.0 0.00 0.00 0.00 52 1010.8
20260510194047 71 59 1.0 2.0 0.00 0.00 0.00 53 1010.9
20260510193547 68 124 0.0 2.0 0.00 0.00 0.00 55 1010.9
20260510193043 69 282 0.0 2.0 0.00 0.00 0.00 56 1011.0
20260510192543 69 56 1.0 3.0 0.00 0.00 0.00 57 1010.8
20260510192039 71 316 0.0 2.0 0.00 0.00 0.00 56 1010.8
20260510191536 69 94 0.0 2.0 0.00 0.00 0.00 58 1010.8
20260510191032 71 139 1.0 3.0 0.00 0.00 0.00 55 1011.1
20260510190530 71 308 3.0 4.0 0.00 0.00 0.00 54 1011.1
20260510190027 71 133 3.0 4.0 0.00 0.00 0.00 53 1011.0
20260510185524 71 221 1.0 3.0 0.00 0.00 0.00 56 1010.9
20260510185021 71 243 2.0 2.0 0.00 0.00 0.00 55 1011.0
20260510184519 70 186 2.0 3.0 0.00 0.00 0.00 56 1010.9
20260510184014 70 306 1.0 1.0 0.00 0.00 0.00 59 1011.1
20260510183509 69 317 0.0 2.0 0.00 0.00 0.00 59 1011.0
20260510183005 69 181 1.0 6.0 0.00 0.00 0.00 60 1011.2
20260510182502 68 94 1.0 2.0 0.00 0.00 0.00 62 1011.3
20260510181956 66 59 0.0 1.0 0.00 0.00 0.00 68 1011.3
20260510181455 67 306 1.0 2.0 0.00 0.00 0.00 63 1011.2
20260510180950 68 156 1.0 1.0 0.00 0.00 0.00 60 1011.1
20260510180448 69 293 0.0 4.0 0.00 0.00 0.00 57 1011.0
20260510175945 71 309 2.0 4.0 0.00 0.00 0.00 54 1011.1
20260510175441 71 158 4.0 6.0 0.00 0.00 0.00 53 1010.9
20260510174937 69 316 2.0 2.0 0.00 0.00 0.00 59 1010.8
20260510174435 67 193 0.0 1.0 0.00 0.00 0.00 62 1010.9
20260510173931 67 230 0.0 1.0 0.00 0.00 0.00 63 1010.9
20260510173427 68 134 1.0 1.0 0.00 0.00 0.00 61 1011.0
20260510172924 67 168 1.0 1.0 0.00 0.00 0.00 64 1011.2
20260510172420 67 140 0.0 0.0 0.00 0.00 0.00 66 1011.2
20260510171916 67 124 0.0 1.0 0.00 0.00 0.00 65 1011.0
20260510171413 67 105 1.0 1.0 0.00 0.00 0.00 65 1011.2
20260510170910 67 127 0.0 0.0 0.00 0.00 0.00 69 1011.4
20260510170407 67 142 0.0 1.0 0.00 0.00 0.00 67 1011.2
20260510165901 67 62 0.0 1.0 0.00 0.00 0.00 65 1011.5
20260510165358 67 218 0.0 0.0 0.00 0.00 0.00 70 1011.4
20260510164856 68 72 0.0 2.0 0.00 0.00 0.00 63 1011.5
20260510164353 67 228 0.0 1.0 0.00 0.00 0.00 63 1011.5
20260510163852 67 262 0.0 2.0 0.00 0.00 0.00 66 1011.4
20260510163350 67 173 3.0 3.0 0.00 0.00 0.00 64 1011.5
20260510162849 65 253 0.0 0.0 0.00 0.00 0.00 71 1011.8
20260510162347 66 308 1.0 2.0 0.00 0.00 0.00 70 1011.6
20260510161842 65 89 0.0 1.0 0.00 0.00 0.00 70 1011.7
20260510161339 65 127 1.0 3.0 0.00 0.00 0.00 68 1011.9
20260510160836 67 143 2.0 3.0 0.00 0.00 0.00 67 1011.8
20260510160333 67 126 2.0 3.0 0.00 0.00 0.00 67 1011.7
20260510155832 66 179 1.0 2.0 0.00 0.00 0.00 67 1011.8
20260510155330 64 102 0.0 1.0 0.00 0.00 0.00 74 1011.8
20260510154825 64 96 1.0 3.0 0.00 0.00 0.00 71 1012.0
20260510154321 65 161 0.0 0.0 0.00 0.00 0.00 71 1012.0
20260510153815 64 29 0.0 2.0 0.00 0.00 0.00 74 1012.1
20260510153312 64 167 2.0 3.0 0.00 0.00 0.00 71 1011.9
20260510152809 64 132 0.0 2.0 0.00 0.00 0.00 73 1011.9
20260510152307 63 184 0.0 1.0 0.00 0.00 0.00 75 1011.9
20260510151802 63 104 0.0 1.0 0.00 0.00 0.00 79 1011.9
20260510151300 63 98 0.0 3.0 0.00 0.00 0.00 78 1011.9
20260510150755 62 112 0.0 3.0 0.00 0.00 0.00 78 1012.0
20260510150252 61 68 1.0 1.0 0.00 0.00 0.00 80 1012.0
20260510145748 61 128 2.0 2.0 0.00 0.00 0.00 79 1011.9
20260510145245 61 68 0.0 1.0 0.00 0.00 0.00 81 1012.0
20260510144741 61 124 1.0 1.0 0.00 0.00 0.00 81 1012.0
20260510144238 60 216 1.0 2.0 0.00 0.00 0.00 81 1011.9
20260510143731 59 80 0.0 2.0 0.00 0.00 0.00 83 1012.2
20260510143228 58 182 0.0 1.0 0.00 0.00 0.00 84 1012.1
20260510142719 58 132 1.0 2.0 0.00 0.00 0.00 85 1012.4
20260510142216 59 91 0.0 1.0 0.00 0.00 0.00 85 1012.3
20260510141714 60 99 2.0 2.0 0.00 0.00 0.00 83 1012.4
20260510141212 59 189 0.0 1.0 0.00 0.00 0.00 86 1012.5
20260510140708 58 144 0.0 1.0 0.00 0.00 0.00 89 1012.3
20260510140207 57 211 0.0 1.0 0.00 0.00 0.00 91 1012.4
20260510135702 56 229 0.0 3.0 0.00 0.00 0.00 90 1012.4
20260510135158 56 137 0.0 1.0 0.00 0.00 0.00 93 1012.6
20260510134655 55 235 0.0 1.0 0.00 0.00 0.00 96 1012.3
20260510134153 55 317 1.0 1.0 0.00 0.00 0.00 97 1012.3
20260510133649 53 255 0.0 1.0 0.00 0.00 0.00 99 1012.2
20260510133144 53 160 0.0 0.0 0.00 0.00 0.00 99 1012.1
20260510132641 53 135 0.0 0.0 0.00 0.00 0.00 99 1012.3
20260510132138 53 149 0.0 0.0 0.00 0.00 0.00 99 1012.4
20260510131635 51 199 0.0 0.0 0.00 0.00 0.00 99 1012.3
20260510131133 51 56 0.0 0.0 0.00 0.00 0.00 99 1012.6
20260510130629 51 131 0.0 0.0 0.00 0.00 0.00 99 1012.5
20260510130127 51 99 0.0 0.0 0.00 0.00 0.00 99 1012.5
20260510125623 50 124 0.0 0.0 0.00 0.00 0.00 99 1012.5
20260510125119 50 138 0.0 0.0 0.00 0.00 0.00 99 1012.6
20260510124616 49 84 0.0 0.0 0.00 0.00 0.00 99 1012.6
20260510124113 49 147 0.0 0.0 0.00 0.00 0.00 99 1012.7
20260510123608 49 182 0.0 0.0 0.00 0.00 0.00 99 1012.6
20260510123105 49 268 0.0 0.0 0.00 0.00 0.00 99 1012.5
20260510122601 49 147 0.0 0.0 0.00 0.00 0.00 99 1012.2
20260510122057 49 127 0.0 0.0 0.00 0.00 0.00 99 1012.3
20260510121554 49 126 0.0 0.0 0.00 0.00 0.00 99 1012.3
20260510121051 48 158 0.0 0.0 0.00 0.00 0.00 99 1012.4
20260510120550 48 132 0.0 0.0 0.00 0.00 0.00 99 1012.5
20260510120050 48 136 0.0 0.0 0.00 0.00 0.00 99 1012.7
20260510115547 48 136 0.0 0.0 0.00 0.00 0.00 99 1012.6
20260510115044 48 128 0.0 0.0 0.00 0.00 0.00 99 1012.6
20260510114540 48 78 0.0 0.0 0.00 0.00 0.00 99 1012.5
20260510114036 47 149 0.0 0.0 0.00 0.00 0.00 99 1012.6
20260510113531 47 191 0.0 0.0 0.00 0.00 0.00 99 1012.8
20260510113029 47 191 0.0 0.0 0.00 0.00 0.00 99 1012.5
20260510112526 47 166 0.0 0.0 0.00 0.00 0.00 99 1012.4
20260510112022 47 165 0.0 0.0 0.00 0.00 0.00 99 1012.2
20260510111519 47 240 0.0 0.0 0.00 0.00 0.00 99 1012.4
20260510111015 47 172 0.0 0.0 0.00 0.00 0.00 99 1012.1
20260510110511 47 162 0.0 0.0 0.00 0.00 0.00 99 1012.0
20260510110008 47 243 0.0 0.0 0.00 0.00 0.00 99 1012.1
20260510105502 47 285 0.0 1.0 0.00 0.00 0.00 99 1011.9
20260510104958 46 155 0.0 0.0 0.00 0.00 0.00 99 1011.7
20260510104454 46 163 0.0 0.0 0.00 0.00 0.00 99 1011.8
20260510103951 46 145 0.0 0.0 0.00 0.00 0.00 99 1011.7
20260510103448 46 143 0.0 0.0 0.00 0.00 0.00 99 1011.4
20260510102943 46 172 0.0 0.0 0.00 0.00 0.00 99 1011.6
20260510102440 46 176 0.0 0.0 0.00 0.00 0.00 99 1011.8
20260510101937 46 147 0.0 0.0 0.00 0.00 0.00 99 1011.4
20260510101434 46 232 0.0 0.0 0.00 0.00 0.00 99 1011.6
20260510100932 46 162 0.0 0.0 0.00 0.00 0.00 99 1011.3
20260510100428 46 171 0.0 0.0 0.00 0.00 0.00 99 1011.2
20260510095925 46 227 0.0 0.0 0.00 0.00 0.00 99 1011.1
20260510095420 46 131 0.0 0.0 0.00 0.00 0.00 99 1010.9
20260510094919 46 140 0.0 0.0 0.00 0.00 0.00 99 1011.1
20260510094414 46 158 0.0 0.0 0.00 0.00 0.00 99 1011.2
20260510093911 46 164 0.0 0.0 0.00 0.00 0.00 99 1011.3
20260510093406 46 260 0.0 0.0 0.00 0.00 0.00 99 1011.4
20260510092903 46 124 0.0 0.0 0.00 0.00 0.00 99 1010.9
20260510092400 46 159 0.0 0.0 0.00 0.00 0.00 99 1011.1
20260510091855 46 134 0.0 0.0 0.00 0.00 0.00 99 1011.2
20260510091352 46 154 0.0 0.0 0.00 0.00 0.00 99 1011.2
20260510090849 46 161 0.0 0.0 0.00 0.00 0.00 99 1011.5
20260510090340 46 137 0.0 0.0 0.00 0.00 0.00 99 1011.4
20260510085836 46 133 0.0 0.0 0.00 0.00 0.00 99 1011.3
20260510085336 46 164 0.0 0.0 0.00 0.00 0.00 99 1011.5
20260510084832 46 157 0.0 0.0 0.00 0.00 0.00 99 1011.5
20260510084329 46 156 0.0 0.0 0.00 0.00 0.00 99 1011.2
20260510083826 45 159 0.0 0.0 0.00 0.00 0.00 99 1011.3
20260510083323 46 159 0.0 0.0 0.00 0.00 0.00 99 1011.3
20260510082818 45 148 0.0 0.0 0.00 0.00 0.00 99 1011.3
20260510082316 46 145 0.0 0.0 0.00 0.00 0.00 99 1011.3
20260510081814 46 154 0.0 0.0 0.00 0.00 0.00 99 1011.5
20260510081310 46 182 0.0 0.0 0.00 0.00 0.00 99 1011.3
20260510080806 46 192 0.0 0.0 0.00 0.00 0.00 99 1011.5
20260510080301 46 173 0.0 0.0 0.00 0.00 0.00 99 1011.4
20260510075759 46 156 0.0 0.0 0.00 0.00 0.00 99 1011.3
20260510075256 45 154 0.0 0.0 0.00 0.00 0.00 99 1011.3
20260510074753 45 154 0.0 0.0 0.00 0.00 0.00 99 1011.2
20260510074249 45 163 0.0 0.0 0.00 0.00 0.00 99 1011.3
20260510073745 46 172 0.0 0.0 0.00 0.00 0.00 99 1011.4
20260510073242 46 173 0.0 0.0 0.00 0.00 0.00 99 1011.2
20260510072737 46 153 0.0 0.0 0.00 0.00 0.00 99 1011.2
20260510072234 45 144 0.0 0.0 0.00 0.00 0.00 99 1011.2
20260510071731 46 259 0.0 0.0 0.00 0.00 0.00 99 1011.3
20260510071227 45 302 0.0 0.0 0.00 0.00 0.00 99 1011.3
20260510070726 45 91 0.0 0.0 0.00 0.00 0.00 99 1011.3
20260510070223 45 195 0.0 0.0 0.00 0.00 0.00 99 1011.6
20260510065717 46 231 0.0 0.0 0.00 0.00 0.00 99 1011.6
20260510065214 46 177 0.0 0.0 0.00 0.00 0.00 99 1011.8
20260510064711 45 186 0.0 0.0 0.00 0.00 0.00 99 1011.7
20260510064209 45 204 0.0 0.0 0.00 0.00 0.00 99 1011.6
20260510063705 45 126 0.0 0.0 0.00 0.00 0.00 99 1011.5
20260510063201 45 116 0.0 0.0 0.00 0.00 0.00 99 1011.4
20260510062658 45 148 0.0 0.0 0.00 0.00 0.00 99 1011.4
20260510062154 46 129 0.0 0.0 0.00 0.00 0.00 99 1011.5
20260510061649 45 165 0.0 0.0 0.00 0.00 0.00 99 1011.4
20260510061147 45 158 0.0 0.0 0.00 0.00 0.00 99 1011.6
20260510060643 45 174 0.0 0.0 0.00 0.00 0.00 99 1011.5
20260510060139 45 154 0.0 0.0 0.00 0.00 0.00 99 1011.6
20260510055636 46 178 0.0 0.0 0.00 0.00 0.00 99 1011.6
20260510055134 45 216 0.0 0.0 0.00 0.00 0.00 99 1011.6
20260510054629 45 124 0.0 0.0 0.00 0.00 0.00 99 1011.4
20260510054125 45 127 0.0 0.0 0.00 0.00 0.00 99 1011.6
20260510053624 45 231 0.0 0.0 0.00 0.00 0.00 99 1011.7
20260510053121 45 149 0.0 0.0 0.00 0.00 0.00 99 1011.7
20260510052617 45 124 0.0 0.0 0.00 0.00 0.00 99 1011.6
20260510052114 45 129 0.0 0.0 0.00 0.00 0.00 99 1011.8
20260510051609 45 129 0.0 0.0 0.00 0.00 0.00 99 1012.0
20260510051106 45 127 0.0 0.0 0.00 0.00 0.00 99 1011.6
20260510050604 45 136 0.0 0.0 0.00 0.00 0.00 99 1012.1
20260510050100 45 184 0.0 0.0 0.00 0.00 0.00 99 1012.1
20260510045558 45 170 0.0 0.0 0.00 0.00 0.00 99 1012.0
20260510045053 46 228 0.0 0.0 0.00 0.00 0.00 99 1012.1
20260510044550 46 215 0.0 0.0 0.00 0.00 0.00 99 1012.0
20260510044048 46 161 0.0 0.0 0.00 0.00 0.00 99 1011.9
20260510043543 46 161 0.0 0.0 0.00 0.00 0.00 99 1012.0
20260510043039 46 163 0.0 0.0 0.00 0.00 0.00 99 1011.9
20260510042538 46 163 0.0 0.0 0.00 0.00 0.00 99 1012.0
20260510042034 46 205 0.0 0.0 0.00 0.00 0.00 99 1012.1
20260510041531 46 205 0.0 0.0 0.00 0.00 0.00 99 1012.1
20260510041029 46 205 0.0 0.0 0.00 0.00 0.00 99 1012.2
20260510040525 46 145 0.0 0.0 0.00 0.00 0.00 99 1012.0
20260510040021 46 165 0.0 0.0 0.00 0.51 0.51 99 1012.0
20260510035518 46 164 0.0 0.0 0.00 0.51 0.51 99 1012.0
20260510035016 46 182 0.0 0.0 0.00 0.51 0.51 99 1012.1
20260510034516 46 204 0.0 0.0 0.00 0.51 0.51 99 1012.0
20260510034012 46 134 0.0 0.0 0.00 0.51 0.51 99 1011.9
20260510033508 46 134 0.0 0.0 0.00 0.51 0.51 99 1012.1
20260510033006 46 209 0.0 0.0 0.00 0.51 0.51 99 1012.3
20260510032502 45 226 0.0 0.0 0.00 0.51 0.51 99 1012.5
20260510031956 45 132 0.0 0.0 0.00 0.51 0.51 99 1012.4
20260510031452 46 132 0.0 0.0 0.00 0.51 0.51 99 1012.2
20260510030948 46 132 0.0 0.0 0.00 0.51 0.51 99 1012.5
20260510030443 46 133 0.0 0.0 0.00 0.51 0.51 99 1012.7
20260510025941 46 186 0.0 0.0 0.00 0.51 0.51 99 1012.8
20260510025438 46 170 0.0 0.0 0.00 0.51 0.51 99 1012.6
20260510024936 46 169 0.0 0.0 0.00 0.51 0.51 99 1012.7
20260510024432 46 170 0.0 0.0 0.00 0.51 0.51 99 1012.6
20260510023928 45 133 0.0 0.0 0.00 0.51 0.51 99 1012.6
20260510023425 46 133 0.0 0.0 0.00 0.51 0.51 99 1012.6
20260510022922 46 174 0.0 0.0 0.00 0.51 0.51 99 1012.7
20260510022421 46 175 0.0 0.0 0.00 0.51 0.51 99 1012.8
20260510021920 46 181 0.0 0.0 0.00 0.51 0.51 99 1012.7
20260510021418 46 154 0.0 0.0 0.00 0.51 0.51 99 1012.6
20260510020915 46 181 0.0 0.0 0.00 0.51 0.51 99 1012.6
20260510020409 46 264 0.0 0.0 0.00 0.51 0.51 99 1012.8
20260510015905 46 269 0.0 0.0 0.07 0.51 0.51 99 1012.7
20260510015401 46 272 0.0 0.0 0.07 0.51 0.51 99 1012.8
20260510014857 46 277 0.0 0.0 0.00 0.50 0.50 99 1013.0
20260510014354 46 163 0.0 0.0 0.00 0.50 0.50 99 1012.8
20260510013851 46 160 0.0 0.0 0.00 0.50 0.50 99 1012.9
20260510013346 46 259 0.0 0.0 0.00 0.50 0.50 99 1013.1
20260510012842 46 259 0.0 0.0 0.00 0.50 0.50 99 1013.1
20260510012341 46 259 0.0 0.0 0.00 0.50 0.50 99 1013.0
20260510011836 46 259 0.0 0.0 0.00 0.50 0.50 99 1013.0
20260510011331 46 259 0.0 0.0 0.00 0.50 0.50 99 1013.0
20260510010828 46 259 0.0 0.0 0.00 0.50 0.50 99 1013.1
20260510010326 46 259 0.0 0.0 0.00 0.50 0.50 99 1012.9
20260510005822 46 258 0.0 0.0 0.00 0.50 0.50 99 1012.9
20260510005319 46 216 0.0 0.0 0.00 0.50 0.50 99 1012.7
20260510004816 46 227 0.0 0.0 0.00 0.50 0.50 99 1012.7
20260510004314 46 229 0.0 0.0 0.00 0.50 0.50 99 1012.7
20260510003811 46 199 0.0 0.0 0.00 0.50 0.50 99 1012.6
20260510003308 46 230 0.0 0.0 0.00 0.50 0.50 99 1012.7
20260510002806 46 231 0.0 0.0 0.00 0.50 0.50 99 1012.6
20260510002306 46 172 0.0 0.0 0.00 0.50 0.50 99 1012.5
20260510001800 46 175 0.0 0.0 0.00 0.50 0.50 99 1012.7
20260510001259 46 316 0.0 0.0 0.00 0.50 0.50 99 1012.4
20260510000754 46 316 0.0 0.0 0.00 0.50 0.50 99 1012.6
20260510000252 46 316 0.0 0.0 0.00 0.50 0.50 99 1012.5
20260509235749 46 316 0.0 0.0 0.00 0.50 0.50 99 1012.3
20260509235245 46 102 0.0 0.0 0.00 0.50 0.50 99 1012.6
20260509234741 45 92 0.0 0.0 0.00 0.50 0.50 99 1012.5
20260509234238 46 307 0.0 0.0 0.00 0.50 0.50 99 1012.3
20260509233737 46 285 0.0 0.0 0.00 0.50 0.50 99 1012.4
20260509233234 46 150 0.0 0.0 0.00 0.50 0.50 99 1012.3
20260509232729 46 156 0.0 0.0 0.00 0.50 0.50 99 1012.2
20260509232227 46 147 0.0 0.0 0.00 0.50 0.50 99 1012.1
20260509231723 45 247 0.0 0.0 0.00 0.50 0.50 99 1012.4
20260509231220 46 101 0.0 0.0 0.00 0.50 0.50 99 1012.0
20260509230718 46 175 0.0 0.0 0.00 0.50 0.50 99 1012.3
20260509230214 46 241 0.0 0.0 0.00 0.50 0.50 99 1012.2
20260509225710 46 130 0.0 0.0 0.00 0.50 0.50 99 1012.2
20260509225207 46 232 0.0 0.0 0.00 0.50 0.50 99 1012.2
20260509224703 46 263 0.0 0.0 0.00 0.50 0.50 99 1012.2
20260509224200 46 287 0.0 0.0 0.00 0.50 0.50 99 1012.3
20260509223656 46 233 0.0 0.0 0.00 0.50 0.50 99 1012.1
20260509223153 46 233 0.0 0.0 0.00 0.50 0.50 99 1012.3
20260509222650 46 73 0.0 0.0 0.00 0.50 0.50 99 1012.1
20260509222145 46 192 0.0 0.0 0.00 0.50 0.50 99 1012.3
20260509221641 46 99 0.0 0.0 0.00 0.50 0.50 99 1012.3
20260509221137 46 102 0.0 0.0 0.00 0.50 0.50 99 1012.1
20260509220634 46 255 0.0 0.0 0.00 0.50 0.50 99 1012.5
20260509220130 46 70 0.0 0.0 0.00 0.50 0.50 99 1012.5
20260509215627 46 205 0.0 1.0 0.05 0.50 0.50 99 1012.7
20260509215123 46 75 0.0 0.0 0.05 0.50 0.50 99 1012.5
20260509214621 46 178 0.0 0.0 0.07 0.49 0.49 99 1012.6
20260509214117 46 141 0.0 0.0 0.07 0.49 0.49 99 1012.7
20260509213613 46 194 0.0 0.0 0.00 0.48 0.48 99 1012.8
20260509213109 46 261 0.0 0.0 0.05 0.48 0.48 99 1012.9
20260509212607 46 260 0.0 0.0 0.07 0.47 0.47 99 1012.8
20260509212104 46 215 0.0 0.0 0.14 0.47 0.47 99 1013.1
20260509211559 46 117 0.0 0.0 0.12 0.46 0.46 99 1012.8
20260509211056 46 147 0.0 0.0 0.05 0.45 0.45 99 1013.1
20260509210553 46 209 0.0 0.0 0.07 0.44 0.44 99 1012.9
20260509210049 46 283 0.0 0.0 0.12 0.44 0.44 99 1013.1
20260509205543 46 107 0.0 0.0 0.12 0.43 0.43 99 1012.9
20260509205039 46 102 0.0 0.0 0.07 0.42 0.42 99 1013.1